GORIZONT 5 [-]

Last updated on Jan. 21, 2020, 4:35 a.m. UTC

1 13092U 82020A   20020.63351059 -.00000248  00000-0  00000+0 0  9997
2 13092  13.2971 323.5312 0029818 189.4739 347.5365  0.98534052 98521
UTC
Height (km)
Latitude
Longitude
Inclination
Orbital Period
UTC large
Height (km)
Speed (km/s)
/
Latitude / Longitude
Inclination (degrees)
Orbital Period (minutes)
Azimuth
Elevation
Range (km)
Doppler Factor
iOS Compass Heading
iOS Angle

Next 30 passes for location: Hong Kong

Rise time Rise Azimuth (degrees) Set time Set Azimuth (degrees) Duration Max altitude (degrees)

No matching passes for this satellites